Location: Apollinopolis Magna
(24.9792°N, 32.8772°E)
Time: 18:22:18
(UTC+00:00)

Lacrosse 4 Rocket - Pass Details

Date: 02 March 2021
Orbit: 537 x 620 km, 68.0° (Epoch: 10 April)

Event Time Altitude Azimuth Distance (km) Brightness Sun altitude
Rises 17:23:54 0° 202° (SSW) 2,770 5.2 -21.8°
Reaches altitude 10° 17:26:05 10° 203° (SSW) 1,889 4.3 -22.3°
Maximum altitude 17:30:20 83° 292° (WNW) 600 1.4 -23.2°
Enters shadow 17:31:13 56° 11° (N) 708 1.7 -23.4°
